Temperature
34 34 34 35 35 35 35 35 34 35 36 35 34 34 34 33 32 31 30 29 27 26 26 25 24 23 22 21 21 21 20 20 20 19 19 19 19 19 19 19 19 19 19 18
34 33 35 36 36 35 35 34 34 35 36 35 35 34 34 34 33 32 31 29 28 27 26 25 24 23 22 22 21 21 21 21 20 20 20 19 19 19 19 19 19 19 19 18
33 34 36 35 35 34 34 34 34 35 35 35 34 33 33 34 33 32 31 30 29 28 27 25 24 24 23 22 21 21 21 21 21 20 20 19 19 19 19 19 19 19 18 18
34 35 35 35 34 34 34 35 35 35 34 34 34 31 32 33 33 33 32 31 30 29 27 26 25 24 23 23 22 21 21 21 21 20 20 19 19 19 19 19 19 19 19 18
34 35 34 34 34 35 35 36 35 35 34 33 34 33 32 33 32 33 33 32 31 30 28 27 26 25 24 23 22 22 21 21 21 20 20 19 19 19 19 19 19 19 19 19
34 35 35 35 35 35 35 35 35 34 34 32 33 33 32 33 32 32 33 32 31 30 29 27 26 25 24 24 23 22 22 22 21 21 20 20 20 19 19 19 19 19 19 19
32 34 35 35 34 35 34 33 32 31 31 31 34 34 33 34 34 34 34 33 32 30 29 28 27 26 25 24 23 22 22 22 21 21 20 20 20 20 19 19 19 19 19 19
31 32 34 35 34 34 34 33 31 30 31 31 32 33 34 35 35 35 34 33 32 31 30 28 27 26 25 24 24 23 22 22 21 21 20 20 20 19 19 19 19 19 19 19
32 32 35 35 35 34 33 33 34 33 33 32 32 33 34 35 35 35 34 33 32 31 30 29 27 26 25 25 24 23 22 22 21 21 21 20 20 20 20 19 19 19 19 19
33 32 34 35 35 35 34 34 34 33 31 31 32 33 33 33 34 34 34 33 32 31 30 29 28 27 26 25 24 23 22 22 21 21 21 20 20 20 20 20 19 19 19 19
33 32 33 34 33 33 33 33 33 33 32 31 31 32 33 33 34 34 34 33 32 31 30 29 28 27 26 25 24 23 23 22 21 21 21 20 20 20 20 19 19 19 19 19
32 32 31 32 34 35 34 33 33 31 31 31 31 32 34 34 34 34 34 33 32 31 30 29 28 27 27 26 25 23 23 22 22 21 21 21 20 20 20 19 19 19 19 19
31 30 29 30 32 33 33 34 34 33 32 31 31 32 35 34 34 34 33 32 31 30 30 29 28 27 27 26 25 24 23 23 22 21 21 21 20 20 20 20 20 19 19 19
30 29 29 29 31 32 32 33 33 33 32 32 32 32 33 33 33 33 32 32 31 30 29 29 28 27 26 26 25 25 24 23 22 22 21 21 21 20 20 20 20 20 19 19
30 29 29 30 32 32 32 32 33 32 32 32 33 33 33 33 33 32 32 31 31 30 29 28 28 27 26 25 25 24 24 23 23 22 21 21 21 20 20 20 20 20 19 19
28 28 28 29 30 31 32 32 33 33 33 33 33 32 33 33 32 31 31 30 30 29 28 28 27 26 25 25 25 24 24 23 23 22 21 21 21 20 20 19 19 19 19 19
27 26 26 27 29 30 30 31 32 32 33 33 32 33 33 32 31 31 30 29 29 28 28 27 26 26 25 25 24 24 23 23 22 22 21 21 21 20 20 19 19 19 19 19
25 25 25 26 27 27 30 33 33 32 33 33 33 32 32 31 30 29 29 28 28 27 27 26 26 25 24 24 24 23 23 22 22 21 21 21 20 20 19 19 19 19 18 18
26 25 25 26 26 27 30 31 32 31 31 32 32 31 31 30 30 28 27 27 27 26 26 25 25 24 24 23 23 23 22 22 21 21 20 20 20 19 19 19 19 18 18 18
26 25 25 25 25 26 28 31 32 31 29 31 31 30 30 30 29 28 26 26 25 25 24 24 24 24 23 23 23 22 21 21 20 20 20 19 19 19 19 19 18 18 18 17
24 24 24 24 25 27 28 30 30 28 28 29 29 29 28 28 27 25 25 24 24 23 23 23 23 23 22 22 22 21 21 20 20 20 19 19 19 19 19 18 18 17 17 17
24 24 24 24 24 25 27 28 27 26 27 27 27 26 25 25 24 24 23 23 23 22 22 22 22 22 21 21 21 20 20 20 19 19 19 19 19 19 18 18 17 17 17 16
24 24 24 24 24 24 24 24 24 25 25 25 25 24 24 23 23 22 22 22 21 21 21 21 21 20 20 20 19 19 19 19 19 19 18 18 18 18 17 17 17 16 16 16
23 24 23 23 23 23 23 23 23 23 23 24 24 23 23 22 22 21 21 21 20 20 20 19 19 19 19 19 19 18 18 18 18 18 18 17 17 17 16 16 16 16 16 16
21 22 22 21 22 22 22 22 22 22 22 22 22 22 22 21 21 20 20 19 19 19 18 18 18 18 17 18 17 17 17 18 17 17 17 17 16 16 16 16 16 16 15 15
20 20 20 20 20 21 21 21 21 21 20 20 20 20 20 20 19 19 19 18 18 18 18 17 17 17 17 17 17 17 17 17 17 17 16 16 16 16 16 15 15 15 15 15
Wind_Speed
12 12 13 12 10 6 8 7 5 2 3 3 4 6 10 11 11 12 13 13 13 13 12 12 12 12 11 10 9 8 8 7 6 5 5 4 4 4 4 4 5 6 6 6
13 16 14 10 8 7 9 9 8 4 3 3 4 4 8 12 12 12 13 14 14 14 14 13 12 12 12 11 9 9 8 8 7 5 4 4 3 3 4 3 4 6 6 5
17 12 9 10 10 10 10 9 8 6 3 6 5 4 5 9 11 12 13 14 15 16 15 14 13 12 12 12 11 10 9 8 8 7 5 4 3 1 1 2 3 4 6 6
16 15 11 11 12 12 11 9 8 9 8 8 8 5 7 9 11 13 13 14 15 15 16 15 14 13 13 12 11 9 9 8 8 7 6 6 5 4 4 3 3 3 5 5
15 15 14 14 13 12 11 9 8 10 11 11 10 7 6 11 10 12 14 15 15 15 16 16 15 13 12 12 12 10 9 8 7 7 6 5 4 4 3 3 3 3 3 4
17 15 13 14 13 12 11 10 10 11 11 12 12 9 5 8 8 10 13 13 14 14 15 15 14 12 11 11 11 11 10 8 8 7 6 6 5 4 3 3 3 3 3 4
18 17 15 13 14 14 12 11 9 10 10 11 11 8 4 7 9 10 11 12 13 14 15 15 14 14 11 11 11 11 11 9 9 8 7 6 5 5 5 4 4 4 3 3
17 17 18 16 16 13 14 15 12 10 9 6 6 6 5 9 7 7 9 11 13 14 15 15 14 13 12 11 11 11 11 10 9 8 7 5 5 4 3 4 3 3 2 2
15 16 16 18 17 17 16 15 17 15 16 11 7 7 8 9 9 9 10 12 12 13 14 16 16 14 13 12 11 11 11 10 10 9 7 6 5 4 3 3 4 3 2 3
18 15 14 13 14 17 18 15 11 13 11 12 9 9 6 12 12 10 10 12 11 12 11 13 14 14 13 12 11 11 10 9 9 9 8 7 6 5 4 2 2 2 2 2
18 16 16 14 15 17 17 17 13 11 10 11 9 4 4 7 8 9 10 11 11 12 13 12 11 13 13 13 13 11 11 10 9 8 7 6 6 6 5 4 3 2 2 2
14 13 15 17 15 16 17 18 16 11 10 11 11 5 6 9 9 8 7 9 9 10 11 13 12 11 12 13 13 12 11 11 10 8 8 7 6 5 5 5 4 3 3 3
8 10 13 16 16 17 17 17 17 15 12 13 13 7 5 5 7 7 6 8 8 8 9 11 12 12 11 11 12 12 12 11 11 10 8 7 7 6 5 4 3 3 3 3
6 10 15 18 14 13 17 18 18 18 15 15 15 10 6 5 4 5 6 6 7 8 8 9 9 10 9 9 9 10 11 11 11 10 9 8 7 6 5 4 4 3 3 3
8 13 17 20 20 18 16 17 19 19 18 17 14 13 7 6 6 5 6 6 6 7 7 7 8 8 9 9 9 8 9 9 9 10 9 8 7 6 5 4 4 3 3 3
8 12 15 19 21 21 20 19 19 19 18 19 16 11 6 4 5 5 4 5 6 6 6 6 7 8 9 9 9 8 8 8 8 9 8 8 7 6 5 5 4 3 2 1
9 9 13 17 19 21 24 21 19 18 18 17 16 10 5 3 4 5 5 3 4 5 5 4 5 6 6 8 9 8 7 8 8 8 7 8 7 7 6 5 4 4 3 2
9 8 9 15 17 22 19 18 18 17 15 14 10 5 2 2 5 6 5 3 2 3 3 3 3 4 4 5 8 8 8 8 8 8 7 7 6 6 5 5 4 3 3 3
11 9 11 13 18 20 19 16 16 14 12 9 6 4 3 3 4 6 4 3 3 3 3 2 2 3 4 3 5 7 8 8 8 7 6 6 6 6 5 4 4 3 3 3
14 10 12 14 17 19 14 12 11 12 11 5 3 2 3 2 3 3 5 5 5 4 3 3 2 3 4 3 5 6 7 6 6 6 5 5 5 5 4 4 3 3 2 3
15 15 16 18 19 17 10 9 10 12 6 1 2 1 1 1 3 5 6 6 6 5 3 4 4 3 4 4 4 5 5 5 5 5 5 4 4 4 4 3 3 2 2 2
15 15 15 16 19 15 6 6 4 3 4 4 4 5 5 6 7 6 6 6 5 5 4 4 4 5 5 5 4 5 4 4 5 5 5 4 4 3 4 4 3 2 1 2
11 10 9 9 8 3 6 6 5 5 5 5 5 6 6 6 5 5 5 5 4 5 4 5 6 6 6 6 6 5 4 4 4 5 5 4 3 3 3 3 3 2 2 2
9 7 7 4 2 0 2 3 4 5 5 5 4 4 4 4 4 4 4 4 4 5 5 5 6 6 6 6 5 5 5 4 4 4 4 4 4 3 3 1 2 1 1 1
8 7 7 5 3 1 0 2 3 4 5 5 5 5 5 5 5 5 5 4 4 4 5 5 5 5 6 5 5 5 4 4 3 3 3 3 4 4 3 4 3 2 3 1
7 8 7 4 2 2 1 1 1 2 3 4 4 4 5 5 4 4 3 3 4 5 5 4 4 5 5 5 5 4 4 3 3 2 2 2 2 3 4 5 4 8 5 6
Wind_Direction
233 239 244 244 246 265 283 291 289 243 158 226 194 170 168 168 174 170 169 168 169 173 174 168 170 168 166 164 166 171 180 176 181 187 187 192 201 207 204 207 189 191 206 200
240 236 247 261 267 266 264 265 265 244 170 255 249 206 178 171 178 174 174 174 175 174 172 170 174 175 173 170 171 173 180 181 188 190 190 193 199 215 208 208 184 199 206 204
238 241 234 246 253 254 255 258 273 279 241 237 250 250 191 182 173 174 177 177 177 178 174 173 178 179 177 174 178 184 182 182 186 186 189 192 176 202 225 205 196 208 211 217
241 244 244 245 245 249 255 259 265 273 274 269 249 236 197 199 186 178 178 179 178 176 173 173 179 181 181 178 178 175 176 181 179 183 195 197 191 200 207 199 204 212 218 223
242 241 239 242 243 251 261 276 270 269 270 273 258 253 189 192 193 181 180 182 178 174 172 173 177 178 180 177 174 173 170 175 176 184 192 194 206 206 198 185 198 208 216 221
254 251 240 240 243 248 258 265 263 264 265 261 257 257 187 189 181 185 181 175 169 168 167 167 170 169 173 172 169 168 166 172 175 187 194 194 204 203 203 197 194 207 216 214
241 245 241 241 243 236 235 244 246 242 244 251 251 244 182 164 167 177 165 160 162 165 167 165 167 168 169 170 168 164 163 171 179 187 194 197 200 205 209 212 208 213 224 203
229 231 227 227 234 238 228 236 242 252 251 251 251 247 196 156 153 152 152 153 159 166 169 165 167 167 166 170 169 164 164 171 179 186 188 190 196 211 201 206 224 223 232 220
242 238 221 217 223 234 237 236 246 256 264 265 223 220 171 158 155 163 161 153 165 167 165 163 167 167 167 172 169 165 161 168 176 181 178 184 190 199 198 198 208 218 222 235
253 263 246 218 217 227 240 244 250 256 269 276 254 220 203 163 163 168 170 161 158 156 161 163 164 165 166 169 165 161 160 166 172 175 180 182 182 186 193 213 211 213 236 257
246 256 251 234 220 224 226 239 250 264 269 269 271 275 126 150 157 163 169 155 161 163 167 160 162 163 165 167 166 164 160 164 171 175 176 164 169 181 187 193 205 207 225 236
239 248 252 242 236 231 233 234 234 240 252 271 276 260 167 166 162 166 165 151 156 161 157 154 161 166 169 170 167 166 166 170 172 170 168 167 169 175 185 185 188 197 209 224
250 249 248 244 237 228 233 235 238 240 243 249 258 251 175 158 153 149 146 140 146 148 150 153 161 166 169 169 167 168 171 175 173 169 169 168 175 179 182 181 182 195 209 228
259 250 251 245 240 232 229 233 238 239 240 241 242 235 197 160 149 154 144 143 151 151 152 156 155 157 160 161 161 166 175 173 171 168 170 171 177 176 179 177 180 190 202 224
256 250 254 261 265 259 248 236 235 237 242 250 251 240 211 171 171 159 150 148 154 154 156 157 152 152 157 159 161 167 171 167 166 164 169 170 173 176 177 174 176 178 189 211
251 259 259 258 260 261 261 251 240 241 241 245 254 258 241 155 151 137 139 150 147 154 160 160 154 157 164 166 169 170 170 163 157 164 169 166 171 171 172 172 171 177 179 177
242 256 259 257 255 258 253 251 249 242 243 246 249 253 224 177 136 134 130 146 146 154 151 156 160 164 167 172 170 172 169 161 162 168 170 169 171 171 173 176 173 176 172 171
255 255 251 254 257 250 251 253 256 254 250 246 248 249 207 129 112 105 102 117 109 125 137 143 164 159 168 177 172 169 166 163 168 173 175 170 170 167 165 167 171 171 173 179
240 240 247 250 248 249 254 251 251 253 253 251 242 227 191 206 150 117 101 105 84 82 90 100 140 152 149 159 158 155 163 165 168 169 170 168 166 165 164 170 175 175 182 180
235 230 237 246 250 249 249 255 261 256 240 252 258 211 201 211 216 130 91 90 87 62 64 74 74 87 115 116 136 148 156 156 161 159 157 149 147 151 160 172 179 176 180 182
230 228 232 241 249 252 274 281 267 246 248 277 289 24 128 33 57 73 78 79 87 84 70 77 75 72 87 98 117 140 146 149 144 134 135 141 148 158 160 158 164 170 183 183
233 230 230 238 244 247 304 291 282 346 20 31 41 59 66 79 90 86 81 80 79 82 79 88 84 77 80 82 98 115 125 127 129 131 133 141 147 159 148 147 157 160 166 183
247 247 243 242 246 345 11 17 32 36 42 42 49 65 81 87 93 92 86 83 77 73 74 81 90 85 81 80 87 97 102 110 121 124 129 130 129 119 130 156 158 164 174 210
260 267 269 269 238 19 39 21 24 30 38 41 51 70 88 94 84 78 75 77 77 75 74 77 92 94 87 83 87 96 92 93 112 129 134 138 141 135 112 96 96 98 56 337
288 281 260 257 250 238 279 30 33 28 32 37 36 49 69 88 78 70 69 65 75 87 87 84 93 101 97 92 91 90 94 104 108 118 137 159 154 142 128 98 57 74 69 51
285 287 276 254 275 270 222 174 148 64 43 37 41 46 57 74 78 72 78 79 73 79 85 90 94 103 104 100 93 89 95 108 119 137 151 174 157 145 145 128 98 53 69 67
Height
1493 1494 1493 1486 1482 1484 1485 1487 1489 1483 1478 1483 1487 1490 1492 1497 1501 1505 1511 1516 1521 1525 1529 1532 1534 1536 1538 1540 1541 1542 1544 1545 1547 1548 1550 1551 1553 1554 1556 1557 1558 1558 1560 1561
1492 1493 1484 1480 1480 1483 1485 1490 1488 1481 1477 1483 1486 1487 1487 1492 1496 1501 1507 1512 1517 1522 1526 1530 1532 1535 1536 1538 1539 1541 1542 1543 1545 1547 1549 1550 1552 1553 1554 1555 1556 1557 1558 1559
1492 1484 1479 1482 1483 1487 1487 1488 1487 1485 1479 1480 1487 1495 1490 1489 1492 1498 1502 1507 1512 1518 1522 1526 1530 1532 1535 1536 1537 1539 1540 1542 1543 1545 1547 1549 1550 1551 1552 1553 1554 1554 1555 1557
1484 1479 1480 1482 1484 1485 1490 1479 1480 1483 1489 1492 1488 1508 1495 1490 1490 1493 1498 1503 1508 1513 1518 1523 1527 1530 1532 1534 1536 1537 1538 1540 1542 1543 1545 1547 1548 1549 1550 1551 1552 1552 1553 1554
1483 1478 1480 1484 1482 1481 1483 1477 1479 1482 1487 1493 1487 1497 1497 1487 1491 1490 1493 1498 1503 1509 1514 1519 1523 1527 1530 1532 1534 1535 1537 1538 1540 1542 1543 1545 1546 1547 1548 1549 1549 1550 1551 1552
1478 1474 1475 1477 1477 1478 1478 1481 1482 1484 1488 1505 1490 1494 1500 1487 1488 1488 1489 1493 1499 1505 1510 1515 1520 1524 1528 1530 1532 1533 1535 1536 1538 1540 1541 1543 1544 1545 1546 1547 1547 1548 1548 1549
1485 1477 1473 1475 1479 1478 1481 1494 1508 1512 1511 1507 1483 1488 1489 1477 1476 1480 1484 1490 1496 1502 1507 1513 1517 1521 1525 1528 1530 1532 1533 1535 1536 1538 1540 1541 1543 1544 1545 1545 1546 1546 1547 1548
1490 1488 1473 1472 1477 1481 1481 1488 1509 1520 1517 1505 1491 1492 1479 1469 1473 1477 1482 1487 1494 1499 1504 1509 1515 1519 1523 1526 1528 1530 1531 1533 1535 1537 1538 1540 1541 1542 1543 1544 1544 1545 1546 1546
1481 1481 1464 1466 1469 1474 1481 1483 1478 1490 1494 1500 1496 1484 1474 1468 1472 1476 1480 1486 1491 1497 1502 1507 1512 1516 1520 1524 1526 1528 1530 1532 1534 1535 1537 1538 1539 1541 1542 1542 1543 1544 1544 1544
1471 1480 1465 1462 1466 1469 1472 1474 1480 1490 1506 1511 1496 1489 1484 1474 1474 1475 1479 1484 1489 1495 1500 1505 1510 1514 1518 1522 1525 1527 1529 1530 1532 1534 1535 1537 1538 1539 1540 1541 1541 1542 1542 1543
1468 1479 1473 1466 1471 1475 1475 1479 1481 1484 1487 1503 1509 1497 1468 1472 1472 1474 1478 1482 1488 1493 1499 1503 1507 1512 1516 1519 1523 1525 1527 1529 1531 1533 1534 1536 1536 1537 1538 1539 1540 1540 1540 1540
1468 1473 1479 1470 1461 1462 1466 1472 1477 1494 1496 1491 1497 1492 1464 1466 1470 1473 1476 1481 1486 1491 1496 1500 1506 1510 1513 1517 1520 1523 1525 1527 1529 1531 1532 1534 1535 1536 1537 1537 1537 1537 1538 1538
1471 1477 1489 1485 1475 1465 1467 1466 1469 1474 1483 1491 1497 1490 1464 1466 1469 1472 1477 1481 1486 1490 1495 1498 1503 1507 1511 1514 1518 1520 1523 1525 1527 1529 1530 1532 1533 1534 1535 1536 1536 1536 1536 1536
1473 1478 1485 1489 1477 1467 1469 1468 1466 1472 1483 1487 1484 1481 1470 1470 1472 1474 1477 1481 1485 1490 1494 1498 1501 1505 1508 1512 1515 1518 1521 1523 1525 1527 1528 1529 1531 1532 1533 1534 1534 1534 1534 1535
1474 1480 1478 1472 1464 1461 1462 1464 1464 1468 1471 1477 1473 1471 1469 1468 1471 1475 1478 1481 1485 1489 1493 1496 1500 1503 1506 1509 1512 1515 1518 1521 1522 1524 1526 1527 1529 1530 1531 1531 1532 1532 1532 1532
1475 1481 1479 1478 1468 1464 1464 1460 1460 1463 1463 1466 1468 1468 1461 1465 1471 1474 1478 1481 1485 1488 1492 1495 1498 1501 1504 1506 1509 1512 1515 1517 1520 1521 1523 1525 1526 1528 1528 1529 1529 1530 1530 1530
1478 1484 1487 1485 1473 1470 1472 1461 1458 1459 1458 1461 1467 1464 1462 1466 1470 1474 1478 1482 1484 1488 1491 1494 1496 1499 1502 1504 1506 1509 1512 1514 1516 1519 1521 1522 1523 1525 1525 1526 1527 1527 1527 1527
1483 1486 1487 1486 1484 1492 1467 1452 1451 1454 1454 1454 1457 1460 1463 1467 1472 1475 1479 1483 1485 1488 1490 1492 1495 1497 1500 1502 1504 1506 1509 1511 1513 1515 1517 1519 1521 1521 1523 1524 1524 1525 1525 1525
1478 1484 1488 1487 1487 1479 1462 1453 1452 1455 1457 1454 1457 1460 1465 1468 1472 1476 1479 1482 1485 1488 1489 1491 1493 1495 1497 1499 1501 1503 1505 1508 1510 1512 1514 1516 1517 1519 1520 1521 1522 1522 1522 1522
1475 1478 1486 1486 1490 1485 1465 1452 1451 1454 1462 1458 1459 1462 1466 1468 1473 1478 1481 1482 1485 1487 1488 1490 1492 1493 1495 1497 1498 1500 1503 1505 1507 1509 1511 1513 1514 1515 1516 1517 1518 1519 1520 1520
1479 1480 1483 1485 1484 1471 1459 1453 1454 1467 1467 1461 1462 1464 1467 1471 1475 1480 1481 1483 1484 1486 1488 1489 1490 1492 1493 1495 1497 1499 1501 1503 1505 1506 1508 1510 1511 1512 1513 1514 1516 1516 1517 1517
1475 1478 1480 1480 1483 1476 1461 1458 1462 1466 1463 1463 1465 1468 1471 1474 1476 1479 1482 1483 1485 1485 1487 1488 1490 1491 1492 1494 1496 1497 1499 1501 1503 1504 1507 1508 1509 1510 1511 1511 1512 1514 1514 1515
1469 1469 1468 1471 1473 1470 1466 1466 1467 1467 1467 1468 1469 1471 1474 1476 1478 1481 1482 1484 1486 1487 1487 1488 1489 1490 1491 1493 1494 1496 1498 1499 1501 1503 1504 1506 1508 1508 1509 1510 1510 1512 1512 1513
1468 1466 1467 1468 1468 1468 1469 1470 1470 1471 1471 1472 1472 1474 1476 1478 1479 1481 1483 1484 1486 1487 1487 1488 1488 1489 1490 1492 1493 1495 1497 1498 1499 1502 1504 1505 1506 1507 1508 1509 1509 1510 1510 1510
1471 1470 1468 1469 1469 1470 1470 1471 1473 1474 1474 1474 1475 1476 1478 1479 1481 1482 1483 1485 1486 1487 1487 1488 1488 1489 1490 1492 1493 1494 1496 1497 1498 1500 1502 1503 1504 1505 1506 1507 1507 1508 1508 1508
1474 1473 1471 1470 1470 1470 1471 1473 1474 1475 1476 1477 1477 1478 1479 1480 1481 1483 1485 1485 1486 1487 1487 1488 1489 1489 1490 1492 1492 1493 1495 1496 1497 1498 1500 1502 1503 1503 1504 1504 1505 1505 1505 1505